TimeCDT,TemperatureF,Dew PointF,Humidity,Sea Level PressureIn,VisibilityMPH,Wind Direction,Wind SpeedMPH,Gust SpeedMPH,PrecipitationIn,Events,Conditions,WindDirDegrees,DateUTC
12:15 AM,70.9,68.4,92,29.91,7.0,NNE,5.8,-,N/A,,Clear,30,2012-09-03 05:15:00
12:35 AM,69.6,68.0,95,29.91,5.0,Calm,Calm,-,N/A,,Clear,0,2012-09-03 05:35:00
12:55 AM,69.1,67.6,95,29.91,5.0,NE,4.6,-,N/A,,Clear,40,2012-09-03 05:55:00
1:15 AM,68.9,67.1,94,29.92,5.0,NNE,3.5,-,N/A,,Clear,30,2012-09-03 06:15:00
1:35 AM,67.8,66.6,96,29.91,3.0,Calm,Calm,-,N/A,,Clear,0,2012-09-03 06:35:00
1:55 AM,68.2,67.1,96,29.90,5.0,North,3.5,-,N/A,,Clear,10,2012-09-03 06:55:00
2:15 AM,67.5,66.4,96,29.90,4.0,NNE,4.6,-,N/A,,Clear,20,2012-09-03 07:15:00
2:35 AM,67.6,66.4,96,29.90,4.0,NNE,3.5,-,N/A,,Clear,20,2012-09-03 07:35:00
2:55 AM,67.3,66.2,96,29.91,4.0,Calm,Calm,-,N/A,,Clear,0,2012-09-03 07:55:00
3:15 AM,66.6,65.5,96,29.91,2.0,North,3.5,-,N/A,,Clear,360,2012-09-03 08:15:00
3:35 AM,66.2,65.3,97,29.91,2.0,NE,3.5,-,N/A,,Clear,50,2012-09-03 08:35:00
3:55 AM,67.1,66.2,97,29.90,4.0,ENE,4.6,-,N/A,,Clear,70,2012-09-03 08:55:00
4:15 AM,68.0,66.6,95,29.90,5.0,ENE,3.5,-,N/A,,Clear,60,2012-09-03 09:15:00
4:35 AM,68.0,66.9,96,29.89,5.0,East,3.5,-,N/A,,Clear,80,2012-09-03 09:35:00
4:55 AM,67.5,66.2,96,29.89,5.0,NNE,3.5,-,N/A,,Clear,30,2012-09-03 09:55:00
5:15 AM,66.9,65.5,95,29.89,4.0,North,4.6,-,N/A,,Clear,10,2012-09-03 10:15:00
5:35 AM,66.7,65.5,96,29.91,3.0,NW,5.8,-,N/A,,Clear,320,2012-09-03 10:35:00
5:55 AM,66.2,64.9,96,29.91,3.0,Calm,Calm,-,N/A,,Clear,0,2012-09-03 10:55:00
6:15 AM,65.3,64.2,96,29.92,2.0,NNW,3.5,-,N/A,,Clear,330,2012-09-03 11:15:00
6:35 AM,65.5,64.6,97,29.93,1.2,NNW,3.5,-,N/A,,Mist,330,2012-09-03 11:35:00
6:55 AM,65.1,64.2,97,29.93,1.2,Calm,Calm,-,N/A,,Mist,0,2012-09-03 11:55:00
7:15 AM,66.4,65.5,97,29.94,2.5,North,4.6,-,N/A,,Clear,360,2012-09-03 12:15:00
7:35 AM,67.6,66.2,95,29.94,3.0,NNE,4.6,-,N/A,,Clear,30,2012-09-03 12:35:00
7:55 AM,68.7,66.7,93,29.94,4.0,North,4.6,-,N/A,,Clear,10,2012-09-03 12:55:00
8:15 AM,70.3,67.6,91,29.94,5.0,NE,3.5,-,N/A,,Clear,40,2012-09-03 13:15:00
8:35 AM,72.7,68.7,87,29.94,7.0,NE,4.6,-,N/A,,Clear,40,2012-09-03 13:35:00
8:55 AM,74.7,69.1,83,29.94,10.0,NNE,4.6,-,N/A,,Clear,30,2012-09-03 13:55:00
9:15 AM,76.5,70.2,81,29.94,10.0,NE,4.6,-,N/A,,Clear,40,2012-09-03 14:15:00
9:35 AM,77.7,70.2,77,29.94,10.0,ENE,5.8,-,N/A,,Clear,60,2012-09-03 14:35:00
9:55 AM,78.6,70.7,77,29.94,10.0,Calm,Calm,-,N/A,,Clear,0,2012-09-03 14:55:00
10:15 AM,80.4,70.7,72,29.94,10.0,NNE,4.6,-,N/A,,Clear,30,2012-09-03 15:15:00
10:35 AM,81.5,71.1,70,29.94,10.0,North,8.1,-,N/A,,Clear,10,2012-09-03 15:35:00
10:55 AM,82.4,70.5,67,29.94,10.0,NE,6.9,-,N/A,,Clear,40,2012-09-03 15:55:00
11:15 AM,83.3,70.7,66,29.94,10.0,NNE,8.1,-,N/A,,Clear,30,2012-09-03 16:15:00
11:35 AM,84.2,71.1,65,29.94,10.0,NNE,6.9,-,N/A,,Clear,20,2012-09-03 16:35:00
11:55 AM,85.1,69.6,60,29.94,10.0,NE,6.9,-,N/A,,Clear,40,2012-09-03 16:55:00
12:15 PM,86.0,70.5,60,29.94,10.0,ENE,5.8,-,N/A,,Scattered Clouds,60,2012-09-03 17:15:00
12:35 PM,86.4,70.5,59,29.93,10.0,ENE,4.6,-,N/A,,Clear,70,2012-09-03 17:35:00
12:55 PM,86.2,70.0,58,29.93,10.0,Calm,Calm,-,N/A,,Clear,0,2012-09-03 17:55:00
1:15 PM,87.3,70.9,58,29.93,10.0,NNE,3.5,-,N/A,,Scattered Clouds,30,2012-09-03 18:15:00
1:35 PM,88.2,71.2,57,29.92,10.0,NNE,4.6,-,N/A,,Scattered Clouds,30,2012-09-03 18:35:00
1:55 PM,89.2,70.3,53,29.92,10.0,NNE,5.8,-,N/A,,Mostly Cloudy,20,2012-09-03 18:55:00
2:15 PM,87.6,68.9,54,29.92,10.0,Calm,Calm,-,N/A,,Scattered Clouds,0,2012-09-03 19:15:00
2:35 PM,89.2,68.9,51,29.92,10.0,NE,4.6,-,N/A,,Scattered Clouds,50,2012-09-03 19:35:00
2:55 PM,87.4,69.8,56,29.91,10.0,Calm,Calm,-,N/A,,Scattered Clouds,0,2012-09-03 19:55:00
3:15 PM,88.9,70.0,53,29.91,10.0,NNE,3.5,-,N/A,,Clear,30,2012-09-03 20:15:00
3:35 PM,88.7,69.3,52,29.90,10.0,East,4.6,-,N/A,,Scattered Clouds,80,2012-09-03 20:35:00
3:55 PM,89.1,68.9,51,29.90,10.0,NE,3.5,-,N/A,,Clear,50,2012-09-03 20:55:00
4:15 PM,89.2,67.5,48,29.89,10.0,Calm,Calm,-,N/A,,Clear,0,2012-09-03 21:15:00
4:35 PM,88.7,68.2,51,29.90,10.0,Calm,Calm,-,N/A,,Clear,0,2012-09-03 21:35:00
4:55 PM,88.9,67.6,49,29.90,10.0,Calm,Calm,-,N/A,,Scattered Clouds,0,2012-09-03 21:55:00
5:15 PM,88.9,68.4,51,29.89,10.0,ENE,3.5,-,N/A,,Scattered Clouds,60,2012-09-03 22:15:00
5:35 PM,87.1,68.4,54,29.89,10.0,Calm,Calm,-,N/A,,Clear,0,2012-09-03 22:35:00
5:55 PM,87.1,67.8,53,29.89,10.0,Calm,Calm,-,N/A,,Clear,0,2012-09-03 22:55:00
6:15 PM,86.9,70.3,58,29.89,10.0,NNW,3.5,-,N/A,,Scattered Clouds,330,2012-09-03 23:15:00
6:35 PM,85.8,68.5,56,29.89,10.0,NNW,3.5,-,N/A,,Scattered Clouds,330,2012-09-03 23:35:00
6:55 PM,84.6,70.5,63,29.89,10.0,NNW,3.5,-,N/A,,Clear,330,2012-09-03 23:55:00
7:15 PM,81.9,70.2,68,29.89,10.0,Calm,Calm,-,N/A,,Clear,0,2012-09-04 00:15:00
7:35 PM,79.2,70.9,76,29.89,10.0,Calm,Calm,-,N/A,,Clear,0,2012-09-04 00:35:00
7:55 PM,77.7,70.7,79,29.89,10.0,NNW,3.5,-,N/A,,Clear,330,2012-09-04 00:55:00
8:15 PM,76.6,70.3,81,29.89,10.0,Calm,Calm,-,N/A,,Clear,0,2012-09-04 01:15:00
8:35 PM,75.7,71.1,85,29.90,10.0,Calm,Calm,-,N/A,,Clear,0,2012-09-04 01:35:00
8:55 PM,77.0,69.8,78,29.91,10.0,Calm,Calm,-,N/A,,Clear,0,2012-09-04 01:55:00
9:15 PM,74.3,70.2,87,29.91,10.0,Calm,Calm,-,N/A,,Clear,0,2012-09-04 02:15:00
9:35 PM,74.3,70.7,88,29.91,10.0,Calm,Calm,-,N/A,,Clear,0,2012-09-04 02:35:00
9:55 PM,73.4,70.2,90,29.91,10.0,Calm,Calm,-,N/A,,Clear,0,2012-09-04 02:55:00
10:15 PM,73.0,70.0,90,29.90,10.0,Calm,Calm,-,N/A,,Clear,0,2012-09-04 03:15:00
10:35 PM,72.5,69.8,91,29.90,10.0,Calm,Calm,-,N/A,,Clear,0,2012-09-04 03:35:00
10:55 PM,71.8,69.3,92,29.89,10.0,Calm,Calm,-,N/A,,Clear,0,2012-09-04 03:55:00
11:15 PM,70.7,68.9,94,29.90,10.0,Calm,Calm,-,N/A,,Clear,0,2012-09-04 04:15:00
11:35 PM,72.0,69.8,93,29.89,10.0,Calm,Calm,-,N/A,,Scattered Clouds,0,2012-09-04 04:35:00
11:55 PM,72.7,69.8,91,29.90,10.0,Calm,Calm,-,N/A,,Clear,0,2012-09-04 04:55:00